Vorticity
7 7 7 7 7 8 8 8 7 5 5 5 5 6 7 9 9 9 8 5 4 4 5 5 4 4 6 10 8 7 7 8 8 6 5 8 14 7 3 9 1 1 8 4 5 6 4 6 5 6 6 4 5 3 4 2 -1 6 4 19 40 15 4 14 3 -1 2 2 2 1 3 4 3 5 8 10 10 10 9 8 11 11 8 5 5 5 4 5
7 7 6 6 6 6 7 8 8 8 7 6 5 5 6 7 8 9 9 8 6 4 4 5 6 4 4 7 9 9 7 8 8 3 6 12 13 5 3 7 3 1 5 5 4 5 5 5 5 6 6 5 5 3 4 2 -1 4 5 23 36 13 6 11 3 1 2 2 1 2 3 2 6 5 6 11 12 13 8 4 8 11 9 8 7 8 7 6
7 7 6 6 6 6 6 6 7 8 8 8 7 7 6 6 7 8 9 9 8 6 4 3 5 6 5 4 7 10 8 8 6 4 9 10 9 8 5 5 4 1 3 4 5 5 4 3 4 8 9 7 6 4 4 4 2 0 2 21 24 7 10 10 2 5 4 1 -1 2 2 2 7 7 7 7 8 9 4 -0 2 10 13 10 10 8 7 6
7 6 6 5 5 5 6 6 7 8 8 8 8 8 8 8 7 7 8 10 10 8 6 4 3 5 7 5 5 8 10 9 5 7 9 7 9 11 7 4 4 2 2 3 6 6 3 2 4 7 8 6 6 4 4 4 3 -0 1 16 17 8 13 9 3 6 6 2 -3 -2 2 2 2 7 10 6 7 6 3 4 2 8 14 13 12 8 4 4
6 6 5 4 4 5 6 7 8 8 9 9 9 9 8 8 9 8 8 9 10 10 8 6 4 3 5 7 5 5 10 10 6 7 8 6 9 11 9 5 4 2 1 2 5 6 6 5 6 6 6 6 6 4 4 4 3 2 2 9 16 15 13 8 5 6 4 3 -0 -3 0 2 -1 7 15 8 8 9 6 7 5 5 8 11 10 5 3 3
6 5 4 4 5 6 7 8 9 9 10 10 10 11 10 9 9 10 9 8 9 11 10 8 6 5 4 6 7 6 8 10 8 8 7 7 9 9 10 8 4 2 -0 1 3 6 8 6 5 6 6 5 5 4 4 5 3 5 7 9 16 17 13 9 7 7 4 2 4 0 -1 4 0 5 16 11 11 14 8 4 6 6 7 10 6 2 3 3
6 5 5 5 6 7 8 9 10 11 12 12 12 12 13 11 9 9 10 11 9 10 12 11 7 6 5 5 7 7 7 8 10 10 7 7 9 8 11 10 6 2 -1 -2 1 5 8 6 5 4 4 5 5 5 5 5 3 4 7 12 17 16 15 13 7 8 8 1 2 3 3 5 -0 4 12 10 13 14 9 6 8 9 8 9 6 3 4 4
5 5 6 7 7 7 7 8 9 10 12 13 14 14 14 14 13 10 9 11 11 10 11 14 12 7 6 6 6 8 7 6 9 11 9 7 8 8 10 12 8 3 -1 -3 -1 3 5 6 6 4 3 4 5 6 6 5 1 1 3 6 15 20 17 16 10 8 8 1 1 4 5 4 -1 4 9 7 10 11 8 8 10 10 9 10 7 4 3 4
6 6 7 8 9 9 9 9 10 11 12 14 15 16 16 15 15 13 11 11 12 13 11 13 15 11 7 6 7 7 7 7 7 10 11 8 7 8 10 12 10 5 2 -2 -3 1 4 6 6 5 3 4 5 5 7 7 2 0 2 0 12 23 19 16 13 8 4 -0 2 5 5 4 -1 2 10 9 8 9 8 8 12 10 8 10 8 5 3 3
7 7 8 9 10 10 11 13 13 15 16 17 17 18 18 17 16 15 14 13 12 13 13 12 14 15 9 6 8 8 7 7 8 9 11 10 7 7 9 11 11 9 4 -2 -3 -1 3 6 6 5 4 4 5 5 6 7 2 -2 1 1 8 22 25 23 15 5 5 3 1 3 5 5 -0 1 9 12 9 7 8 8 11 10 6 10 9 6 5 3
8 8 9 10 12 12 14 16 17 18 19 19 20 20 19 19 17 16 15 15 14 13 15 13 13 15 13 8 8 9 7 6 8 8 10 12 9 7 8 9 10 11 7 0 -1 0 1 5 5 5 7 5 5 6 4 4 4 -0 1 2 6 19 25 22 16 6 3 7 5 -1 3 6 -0 0 6 11 11 5 7 8 9 9 7 9 10 8 6 5
9 10 11 12 13 14 16 18 18 19 20 20 20 20 20 19 17 16 14 15 16 15 14 14 13 14 15 11 8 8 10 9 9 8 9 12 10 8 8 7 9 12 10 3 1 1 1 2 2 5 7 5 5 6 4 4 4 2 1 2 6 16 15 7 11 14 5 4 7 -3 0 9 1 -0 4 9 12 6 6 8 8 10 9 9 9 8 7 7
10 11 12 13 14 16 17 17 18 18 18 18 18 19 19 21 19 17 15 13 15 16 15 15 13 13 15 13 11 10 12 11 10 8 8 11 11 9 7 8 9 11 12 7 4 3 0 -1 1 4 5 6 6 4 5 4 2 2 3 2 7 14 14 5 2 15 15 3 5 -1 -3 8 3 -0 4 6 13 10 6 8 9 9 9 10 8 7 8 8
11 12 13 15 15 16 16 15 16 16 15 14 13 14 15 18 20 19 18 16 16 17 16 14 13 14 14 14 13 12 12 11 10 9 7 9 11 10 8 7 8 10 12 10 7 4 -1 -1 1 1 2 6 8 6 6 3 0 4 5 4 9 12 15 19 7 11 21 5 2 5 -2 5 4 0 4 5 12 12 6 8 9 8 8 11 9 7 8 8
12 13 14 15 15 15 15 14 15 15 14 13 12 11 11 13 15 16 18 17 17 19 19 16 15 15 13 14 13 11 12 12 10 9 7 7 9 10 8 7 7 8 10 11 10 6 1 0 -0 -0 0 3 8 9 7 5 1 2 5 4 7 9 10 20 16 17 24 6 3 9 1 5 3 -0 5 4 9 12 7 8 8 6 6 10 12 8 8 9
13 14 15 15 15 14 14 14 14 14 13 14 14 13 12 12 13 14 17 18 17 18 21 20 18 17 14 13 13 11 11 10 10 9 8 8 8 10 9 6 6 7 8 10 10 8 5 2 1 -0 -1 0 5 9 8 8 4 -1 4 3 1 6 7 12 15 23 25 6 5 12 3 6 4 -1 6 4 6 12 8 7 7 6 6 9 13 10 8 9
14 14 15 14 13 13 15 14 12 12 12 13 14 14 14 14 13 14 16 18 18 17 20 21 20 20 15 12 13 12 11 10 11 10 9 8 8 10 10 8 7 6 7 8 8 10 7 5 4 1 -2 -2 1 8 10 10 8 4 4 1 -2 1 2 5 13 28 34 12 3 11 4 4 4 -0 5 5 3 9 10 7 7 7 7 9 12 11 9 8
14 14 14 14 13 14 14 12 12 13 13 13 14 14 15 15 14 15 15 16 17 17 18 19 20 21 18 14 13 13 11 10 12 11 10 10 9 9 10 8 7 6 7 7 8 9 8 7 6 3 -0 -3 -2 6 11 9 8 6 4 2 -1 0 -1 2 11 19 28 21 5 8 7 1 3 1 3 6 3 5 11 8 6 8 7 8 10 10 9 7
14 14 14 13 13 14 13 12 15 16 15 15 15 14 14 15 15 15 16 17 17 17 17 17 17 19 19 17 15 15 13 11 12 12 12 12 10 10 9 8 7 6 6 7 8 8 8 9 7 5 2 -1 0 4 7 9 8 4 4 4 3 4 -1 2 14 5 12 31 16 4 8 2 1 3 1 6 5 2 10 9 6 9 8 7 8 8 9 7
14 14 14 14 13 12 13 16 18 17 15 14 13 13 13 15 16 16 16 17 16 17 17 17 17 17 18 18 15 15 14 12 12 12 13 12 10 10 9 9 8 7 6 6 7 8 8 10 8 6 5 3 2 3 4 7 9 5 3 5 5 6 -1 -2 11 3 13 46 29 1 6 3 0 3 0 2 6 5 8 10 8 10 9 6 7 7 8 8
14 13 13 13 12 12 16 19 16 13 12 12 11 12 13 14 15 15 16 16 16 17 16 16 16 16 17 17 15 15 15 12 12 13 12 12 11 11 8 9 9 8 8 5 5 7 8 10 10 8 7 5 2 4 5 4 8 7 3 4 4 6 4 2 7 -0 10 39 31 7 4 5 4 3 2 1 3 7 7 8 9 10 10 6 6 7 7 8
14 11 11 12 12 15 18 15 11 9 11 13 14 14 14 15 15 16 16 16 16 17 16 15 14 15 16 17 15 15 15 14 13 14 13 12 13 11 8 9 9 7 8 7 5 5 7 9 10 9 8 5 2 4 5 4 6 6 6 4 3 7 8 10 11 2 4 16 24 21 3 2 10 3 3 2 0 6 5 6 8 9 11 7 5 7 7 9
13 10 10 11 13 17 16 11 8 9 12 16 18 18 17 17 17 18 18 17 17 16 16 15 13 13 14 15 15 14 14 15 14 15 15 12 12 11 10 10 9 8 8 8 8 7 8 9 8 9 8 5 4 5 6 6 6 4 6 4 1 8 8 6 10 5 2 0 18 41 18 1 12 4 2 3 -2 6 4 4 7 7 10 8 6 8 7 9
12 10 9 12 16 17 13 9 7 9 15 20 21 20 19 19 19 20 19 18 18 17 17 16 13 14 15 13 13 13 12 13 13 15 16 13 12 12 11 10 9 9 8 8 8 8 9 8 7 8 9 7 4 6 8 8 7 3 5 5 -1 7 7 3 8 5 3 -2 6 31 21 6 12 4 3 5 -2 5 5 2 5 5 9 9 9 12 7 7
12 10 10 13 17 15 11 8 8 13 19 22 22 19 17 19 19 20 20 19 19 18 16 16 14 15 16 14 14 14 13 12 12 14 16 14 13 12 11 10 10 9 8 8 8 8 7 6 7 8 9 9 5 6 8 8 9 4 4 6 -1 3 8 4 10 7 5 7 2 7 10 12 23 12 5 8 -0 3 7 2 3 4 7 10 10 13 9 6
11 10 11 15 16 14 10 9 11 14 17 20 20 18 17 19 19 20 21 21 20 18 16 15 16 17 16 15 16 16 14 13 12 12 14 15 13 12 11 10 11 9 8 8 8 8 8 7 7 7 8 10 6 4 6 7 9 4 3 7 1 2 6 1 6 8 5 9 5 7 5 3 29 31 7 3 1 2 9 4 2 4 4 10 10 10 10 7
11 9 12 16 16 13 9 10 12 13 15 17 18 19 19 20 22 20 18 19 19 16 15 14 16 18 16 16 16 15 15 16 14 11 11 13 13 12 11 10 10 11 9 8 9 9 9 8 7 8 7 9 8 4 6 9 9 6 2 4 3 3 6 1 -0 3 5 6 3 12 6 -6 31 47 10 2 4 -2 7 6 2 4 3 7 10 7 10 9
11 9 13 16 16 12 9 10 13 14 14 15 19 22 23 24 25 20 16 19 20 17 15 13 13 14 14 16 16 14 15 16 17 14 10 10 12 12 11 11 10 11 11 9 9 10 10 9 8 8 7 7 11 7 5 9 9 8 2 -1 3 3 5 5 -1 -1 3 2 -2 6 7 -2 29 45 6 -1 9 -4 2 10 5 6 4 4 8 7 9 9
11 9 12 16 16 11 9 11 13 14 12 14 18 19 24 29 23 17 16 14 15 17 13 11 13 13 12 15 15 13 14 15 15 14 13 10 9 11 11 11 10 9 12 9 9 11 10 9 7 6 6 7 12 10 5 8 9 10 5 -1 2 3 4 4 2 3 1 0 -1 3 6 -2 17 41 12 -4 12 6 -2 7 9 6 4 3 4 7 8 8
12 11 12 16 15 10 9 11 12 13 10 12 16 16 22 22 15 20 22 12 10 14 10 9 13 12 12 15 16 14 12 13 15 13 14 12 9 10 9 10 11 8 10 9 8 10 10 9 6 5 7 6 9 10 6 6 6 8 7 1 0 2 2 1 1 4 0 0 3 3 7 1 7 30 14 -7 14 25 5 -1 9 9 3 4 3 5 8 8
13 12 12 15 15 10 9 10 11 12 9 10 14 16 19 16 15 22 16 8 12 12 7 8 10 10 12 15 17 16 11 13 16 13 13 13 10 10 8 9 10 8 9 7 6 9 10 9 7 5 8 7 7 9 7 7 7 9 9 4 1 3 5 2 -0 3 1 1 5 3 5 6 6 12 6 -5 6 23 17 -1 3 11 5 4 5 2 6 8
13 13 13 15 14 11 9 9 10 11 9 11 12 13 14 12 14 11 1 9 19 14 11 10 7 9 11 12 14 16 12 12 14 14 14 14 11 11 10 9 9 8 9 8 6 9 8 9 8 6 7 7 6 8 7 7 6 6 8 6 1 2 6 5 1 4 3 2 7 7 3 3 7 8 8 7 0 10 27 13 -0 9 7 4 6 3 2 6
14 15 14 14 14 11 9 9 9 9 9 10 10 10 9 5 7 6 4 13 16 12 18 15 9 12 13 12 13 15 14 13 14 14 14 14 11 11 12 10 9 8 8 8 8 9 8 8 9 7 7 6 6 7 6 8 8 6 7 7 3 2 6 7 4 4 7 8 8 9 6 2 6 11 12 14 6 5 23 21 4 5 7 5 5 5 4 3
14 16 14 14 13 11 10 9 9 9 10 9 7 7 6 2 4 8 10 11 8 10 18 16 11 13 14 13 12 13 15 16 16 14 14 15 11 9 12 12 9 8 7 6 8 9 8 8 9 9 8 7 7 7 7 10 13 10 7 6 4 4 5 7 7 3 5 12 10 7 9 6 5 12 13 16 17 12 17 26 20 6 4 9 5 2 6 4
14 16 15 14 13 11 10 8 9 9 9 9 7 5 5 4 4 7 9 10 11 12 14 16 16 13 13 12 10 12 14 15 20 19 14 15 12 9 11 12 10 8 7 6 7 8 8 8 9 10 9 8 8 8 7 9 10 8 7 7 6 4 4 4 5 0 -2 5 8 4 6 8 7 8 9 10 14 14 11 21 40 28 2 4 8 3 4 6
14 16 15 14 13 12 9 8 9 10 10 8 7 5 5 6 6 6 6 8 13 14 12 17 20 15 11 9 6 10 11 11 18 22 19 17 14 11 9 11 12 10 8 8 7 7 7 8 9 10 10 9 8 8 8 8 11 9 4 6 8 6 5 5 5 4 1 3 7 6 3 5 7 6 10 9 4 7 1 0 41 58 17 -1 7 5 5 7
15 16 17 15 12 12 10 8 8 9 11 9 7 7 7 5 6 5 5 6 9 13 15 20 24 18 11 9 7 9 10 10 14 18 20 19 15 12 9 10 13 11 9 11 9 7 7 7 8 8 9 10 8 8 8 7 11 10 6 9 11 7 5 5 5 6 6 3 5 9 7 3 5 5 8 10 2 7 8 -2 21 45 23 5 7 3 6 8
15 15 17 15 12 11 10 8 7 8 11 11 8 9 9 7 6 5 5 6 5 10 18 26 28 18 9 11 11 9 8 9 12 14 17 18 15 13 11 9 11 12 12 13 11 9 8 6 7 7 8 10 9 8 8 5 6 8 11 12 9 5 6 6 4 6 9 8 4 8 10 7 8 6 3 6 4 4 11 8 8 13 11 14 14 5 4 6
15 15 16 15 12 10 9 9 8 6 8 10 10 10 10 11 11 7 6 7 5 9 19 27 27 13 6 11 12 9 7 4 10 13 12 16 16 14 14 10 9 14 15 14 11 11 10 6 7 9 7 10 10 8 8 7 6 8 9 8 4 3 7 7 3 3 7 10 8 7 8 8 12 12 3 1 4 5 7 10 10 7 6 14 18 9 4 5
14 15 17 17 13 9 9 10 9 6 5 9 11 11 12 14 14 11 9 7 6 10 17 24 22 8 4 10 5 4 8 4 7 11 8 13 16 15 18 13 8 14 17 15 12 11 12 8 6 10 9 8 11 9 8 9 9 9 6 4 3 2 5 7 4 2 2 6 8 6 5 6 11 14 8 1 1 6 7 7 11 12 9 16 21 13 5 5
14 16 16 18 15 8 8 9 9 6 6 8 9 10 12 14 17 18 15 10 6 8 14 18 14 3 2 7 -0 -0 9 7 6 9 6 11 15 15 21 18 10 14 18 15 12 11 13 10 6 10 10 8 11 10 9 10 10 10 9 10 8 3 3 8 7 6 5 6 8 6 1 2 8 11 12 9 3 4 7 6 10 13 10 13 21 21 14 9
14 15 16 20 18 9 7 8 7 6 7 9 8 10 12 12 16 21 19 14 7 4 9 12 10 5 3 5 -0 -1 6 7 8 12 8 10 14 14 20 22 14 14 16 15 14 12 12 12 8 8 11 9 10 11 10 11 10 9 10 12 12 7 2 4 7 7 8 8 11 11 4 1 7 10 12 15 9 3 5 5 6 10 12 13 20 32 30 11
14 14 16 21 19 11 8 7 7 8 9 9 9 11 12 10 13 21 22 20 12 5 7 10 8 8 9 6 2 -1 2 4 8 12 9 6 11 12 17 23 19 15 15 13 15 14 11 14 12 9 12 13 11 12 12 12 12 9 8 8 9 9 4 3 5 5 6 8 9 12 11 4 3 5 9 14 12 7 5 7 7 6 11 17 15 27 45 32
14 14 15 19 18 13 10 8 8 11 10 7 9 10 11 9 12 20 24 22 16 10 10 9 6 10 13 9 4 1 2 4 5 11 11 5 6 10 14 20 20 17 16 13 14 13 10 15 16 11 13 12 6 9 10 9 10 9 9 9 6 7 7 4 6 4 3 6 6 8 11 6 1 0 4 8 12 12 9 8 10 6 4 13 10 14 42 48
14 15 14 17 18 13 11 9 7 9 7 4 7 8 8 8 8 15 24 22 17 15 13 10 7 8 11 11 9 4 2 2 1 6 10 7 6 7 11 17 17 15 18 16 12 10 9 16 17 11 14 13 3 4 8 8 9 8 9 12 10 8 7 4 5 5 4 5 5 5 7 7 3 -1 -1 4 7 12 13 8 10 11 5 7 10 6 18 28
14 16 14 16 19 15 12 10 6 8 8 5 6 6 7 9 6 10 20 20 16 17 15 11 8 7 7 8 9 6 2 1 1 3 7 8 9 8 8 15 17 13 15 18 15 8 5 15 19 10 12 16 7 6 11 11 11 10 8 12 13 12 10 6 4 5 5 6 6 6 8 10 9 1 -3 1 3 7 14 12 8 10 8 5 7 8 8 8
13 15 14 15 19 17 13 11 10 11 9 6 7 7 7 10 7 8 15 16 15 16 15 14 13 12 11 9 8 8 5 2 2 2 3 4 9 11 8 12 18 13 11 14 16 10 1 10 21 13 9 15 9 5 10 12 12 11 9 9 13 15 12 7 5 5 4 5 8 10 11 10 9 6 -1 -1 1 2 8 15 13 9 9 6 4 7 9 5
12 13 14 15 19 19 12 10 14 12 7 6 7 6 6 8 6 7 11 14 16 15 13 13 14 16 19 18 15 13 13 12 9 6 4 3 8 12 9 10 17 16 11 10 13 12 1 4 19 16 8 13 11 3 5 10 12 12 10 7 7 12 14 11 9 8 5 4 5 8 12 11 8 8 4 -1 -2 -2 -1 7 13 13 13 11 8 8 7 7
11 13 15 14 17 21 14 9 13 11 6 7 7 5 5 6 5 5 6 10 15 17 15 13 11 11 15 16 15 15 16 18 15 12 11 7 7 10 9 10 16 18 15 9 10 13 2 -1 13 15 8 11 12 6 3 5 9 11 10 10 5 4 7 10 11 12 10 8 6 5 8 12 11 10 10 4 -2 -3 -2 -0 4 7 10 11 12 11 8 6
9 12 16 15 16 21 17 8 8 11 8 6 6 6 6 6 5 4 3 6 11 14 16 17 15 14 14 11 12 13 14 18 18 15 13 9 6 7 9 10 13 19 21 12 10 13 3 -0 11 13 7 8 9 8 6 3 5 8 8 10 10 6 3 3 4 8 10 8 7 6 6 9 10 9 11 10 3 -1 2 6 5 2 1 3 5 7 7 7
8 11 16 16 14 20 22 10 5 11 11 7 7 7 6 5 5 6 5 6 7 8 13 17 18 19 19 14 13 13 13 16 19 16 13 10 7 6 11 13 11 16 22 18 15 12 -1 -1 13 14 7 7 5 6 9 6 2 5 6 7 9 9 7 4 2 2 4 4 4 6 8 8 8 7 7 12 12 5 3 7 10 8 5 4 4 3 0 0
8 11 16 17 13 17 22 15 7 10 12 9 8 7 5 5 6 6 6 7 7 5 6 11 13 18 22 18 13 13 13 12 16 20 19 17 14 7 7 12 12 12 16 18 21 19 4 -2 7 11 9 9 6 1 5 7 3 3 5 6 6 8 7 8 7 4 2 3 4 7 10 7 6 8 8 8 10 9 6 7 10 10 7 8 10 10 3 -0
Height
5862 5861 5860 5860 5859 5858 5858 5857 5856 5855 5855 5854 5854 5853 5853 5853 5853 5854 5855 5856 5857 5858 5859 5859 5860 5861 5861 5862 5863 5864 5865 5866 5867 5867 5867 5870 5873 5875 5876 5878 5881 5882 5883 5884 5884 5885 5885 5886 5887 5889 5890 5891 5892 5894 5895 5896 5896 5896 5895 5895 5895 5896 5897 5898 5899 5901 5902 5903 5905 5906 5906 5906 5907 5907 5908 5908 5909 5911 5912 5914 5915 5916 5916 5916 5915 5915 5916 5918
5860 5859 5858 5857 5857 5856 5855 5855 5854 5854 5853 5852 5851 5851 5850 5850 5850 5851 5852 5853 5854 5855 5856 5857 5858 5858 5859 5860 5861 5862 5863 5864 5865 5864 5866 5870 5872 5873 5874 5877 5879 5880 5881 5882 5882 5883 5884 5885 5887 5888 5889 5891 5892 5894 5895 5895 5895 5896 5896 5896 5895 5896 5898 5899 5900 5901 5903 5904 5904 5906 5907 5907 5907 5908 5908 5908 5909 5910 5912 5914 5915 5916 5917 5917 5917 5916 5917 5918
5859 5857 5856 5855 5854 5853 5852 5852 5852 5851 5851 5850 5849 5848 5847 5847 5847 5847 5848 5849 5850 5851 5853 5854 5855 5856 5857 5858 5859 5860 5861 5862 5862 5862 5866 5868 5868 5870 5872 5875 5877 5878 5880 5880 5881 5882 5884 5885 5887 5888 5889 5890 5892 5893 5895 5895 5895 5896 5897 5897 5897 5897 5898 5899 5900 5901 5903 5904 5905 5906 5907 5908 5908 5909 5908 5908 5909 5910 5912 5913 5914 5917 5918 5918 5918 5917 5918 5919
5856 5855 5854 5853 5852 5851 5850 5849 5848 5847 5847 5847 5846 5845 5844 5844 5844 5844 5845 5846 5847 5848 5849 5850 5851 5853 5854 5855 5856 5857 5859 5860 5859 5861 5864 5864 5866 5869 5871 5873 5875 5876 5878 5879 5881 5882 5883 5885 5886 5887 5888 5890 5891 5893 5894 5894 5895 5896 5897 5897 5898 5898 5899 5900 5901 5902 5904 5905 5906 5907 5908 5909 5909 5910 5909 5909 5909 5910 5911 5912 5913 5915 5917 5918 5918 5918 5918 5920
5853 5852 5851 5850 5849 5848 5847 5846 5844 5843 5842 5842 5842 5842 5841 5841 5840 5840 5841 5841 5843 5844 5845 5846 5847 5849 5851 5852 5853 5854 5856 5857 5857 5859 5861 5862 5865 5867 5868 5871 5873 5874 5876 5878 5880 5881 5882 5884 5885 5885 5886 5888 5891 5892 5893 5894 5895 5896 5896 5897 5898 5898 5899 5900 5900 5902 5904 5905 5906 5907 5908 5909 5910 5911 5911 5911 5911 5911 5911 5913 5913 5914 5916 5917 5918 5918 5919 5920
5850 5849 5848 5847 5845 5844 5843 5842 5841 5839 5838 5837 5837 5837 5837 5837 5836 5836 5837 5837 5838 5839 5841 5842 5843 5845 5847 5849 5851 5852 5853 5854 5855 5858 5859 5860 5863 5864 5866 5869 5871 5873 5875 5877 5879 5880 5881 5882 5882 5883 5885 5888 5890 5892 5893 5894 5895 5895 5895 5896 5897 5897 5899 5900 5900 5902 5904 5905 5906 5907 5908 5909 5910 5911 5912 5912 5912 5912 5912 5913 5914 5915 5916 5917 5917 5918 5919 5921
5848 5846 5845 5843 5841 5840 5838 5837 5836 5835 5834 5833 5832 5831 5832 5832 5832 5831 5832 5832 5833 5834 5836 5838 5839 5841 5843 5845 5847 5849 5849 5851 5853 5855 5856 5858 5861 5862 5864 5866 5869 5871 5873 5876 5877 5878 5879 5880 5880 5882 5884 5887 5889 5891 5892 5893 5895 5894 5895 5895 5896 5897 5898 5900 5900 5901 5904 5905 5905 5907 5908 5908 5909 5910 5911 5912 5912 5913 5914 5914 5915 5915 5916 5918 5918 5918 5920 5921
5845 5843 5841 5839 5837 5835 5833 5832 5830 5829 5828 5827 5827 5826 5826 5826 5827 5827 5827 5827 5828 5829 5831 5833 5835 5837 5839 5841 5844 5845 5846 5848 5850 5852 5854 5856 5858 5860 5862 5864 5867 5869 5871 5874 5875 5876 5876 5877 5878 5880 5883 5886 5889 5891 5891 5893 5894 5893 5894 5895 5896 5896 5897 5899 5900 5901 5903 5904 5905 5907 5908 5909 5909 5910 5911 5911 5912 5913 5914 5915 5915 5915 5916 5918 5919 5919 5921 5922
5841 5839 5837 5835 5833 5831 5829 5827 5825 5824 5822 5821 5821 5820 5820 5820 5821 5821 5821 5822 5823 5824 5826 5828 5830 5832 5835 5837 5839 5841 5843 5845 5847 5849 5851 5853 5855 5857 5860 5862 5864 5867 5869 5871 5873 5873 5874 5875 5876 5879 5882 5886 5888 5890 5891 5892 5892 5892 5893 5894 5895 5895 5896 5897 5899 5901 5902 5903 5905 5907 5908 5909 5910 5910 5911 5912 5912 5913 5914 5915 5916 5916 5916 5918 5919 5920 5921 5922
5838 5836 5834 5831 5829 5826 5824 5822 5820 5819 5817 5816 5815 5814 5814 5814 5814 5815 5816 5816 5817 5819 5821 5822 5825 5827 5830 5832 5835 5836 5839 5842 5844 5845 5848 5850 5852 5855 5857 5859 5861 5864 5867 5869 5870 5871 5872 5873 5875 5878 5882 5884 5887 5889 5889 5891 5891 5892 5892 5893 5894 5895 5896 5897 5899 5901 5902 5903 5904 5906 5908 5909 5910 5910 5910 5912 5912 5913 5914 5916 5916 5916 5916 5918 5919 5920 5921 5922
5834 5832 5830 5827 5824 5822 5819 5817 5815 5814 5812 5811 5809 5809 5808 5808 5809 5809 5810 5811 5812 5813 5815 5817 5819 5822 5824 5827 5830 5831 5835 5839 5840 5842 5845 5847 5850 5852 5854 5856 5858 5862 5864 5866 5867 5868 5869 5871 5875 5878 5880 5883 5886 5887 5888 5889 5890 5891 5892 5893 5894 5894 5895 5897 5898 5899 5901 5903 5904 5906 5907 5909 5910 5910 5910 5911 5912 5913 5914 5915 5917 5917 5917 5918 5919 5921 5922 5923
5831 5828 5826 5823 5820 5817 5815 5813 5811 5809 5808 5806 5805 5804 5803 5803 5804 5804 5805 5806 5807 5808 5810 5812 5814 5817 5820 5822 5824 5827 5831 5835 5837 5839 5841 5844 5847 5849 5852 5853 5855 5859 5861 5863 5864 5866 5868 5871 5874 5876 5878 5881 5884 5886 5887 5888 5889 5890 5891 5892 5894 5894 5895 5896 5898 5898 5900 5902 5903 5905 5907 5908 5909 5910 5910 5911 5912 5913 5914 5915 5916 5917 5917 5918 5919 5921 5922 5924
5827 5824 5821 5819 5816 5813 5811 5809 5807 5806 5804 5802 5801 5800 5800 5800 5800 5800 5800 5801 5803 5804 5805 5807 5809 5812 5815 5817 5820 5824 5828 5831 5833 5835 5837 5840 5843 5846 5849 5851 5853 5856 5859 5860 5862 5864 5866 5870 5873 5874 5877 5880 5882 5884 5886 5888 5889 5890 5891 5892 5893 5894 5894 5896 5898 5899 5899 5901 5902 5905 5907 5908 5909 5910 5910 5911 5913 5914 5914 5916 5916 5917 5918 5918 5919 5920 5922 5924
5823 5820 5817 5815 5812 5810 5807 5805 5804 5802 5801 5799 5798 5797 5797 5796 5796 5796 5796 5797 5798 5800 5801 5803 5805 5808 5810 5812 5816 5820 5823 5826 5829 5831 5833 5836 5839 5843 5846 5848 5851 5854 5857 5859 5861 5863 5865 5868 5871 5872 5876 5879 5881 5883 5885 5887 5889 5890 5892 5892 5893 5893 5894 5895 5897 5898 5899 5900 5902 5904 5906 5907 5909 5910 5910 5911 5913 5914 5914 5916 5917 5917 5918 5919 5920 5921 5922 5924
5820 5817 5814 5811 5809 5806 5804 5802 5800 5799 5797 5796 5795 5794 5793 5793 5793 5792 5793 5793 5794 5796 5797 5799 5801 5804 5805 5808 5811 5815 5818 5821 5824 5826 5829 5832 5835 5838 5842 5844 5847 5851 5854 5857 5859 5862 5864 5867 5869 5871 5875 5878 5879 5881 5884 5886 5888 5889 5891 5892 5892 5893 5893 5893 5895 5896 5898 5900 5902 5904 5905 5907 5908 5910 5910 5911 5912 5914 5914 5916 5917 5917 5918 5919 5920 5921 5922 5924
5817 5813 5810 5808 5805 5803 5801 5799 5797 5796 5794 5793 5792 5791 5790 5790 5789 5789 5789 5790 5791 5792 5794 5796 5797 5800 5801 5803 5806 5809 5813 5816 5819 5822 5825 5828 5831 5834 5838 5841 5844 5848 5851 5854 5857 5860 5863 5866 5868 5871 5874 5876 5878 5880 5883 5886 5887 5889 5890 5891 5892 5892 5892 5893 5894 5895 5896 5898 5900 5902 5904 5906 5908 5909 5910 5911 5912 5914 5915 5916 5917 5917 5918 5919 5920 5921 5923 5924
5813 5810 5807 5805 5802 5800 5798 5796 5794 5793 5791 5790 5788 5787 5787 5786 5786 5786 5786 5786 5787 5788 5790 5792 5794 5796 5798 5799 5802 5805 5808 5812 5816 5819 5821 5825 5828 5831 5835 5838 5842 5846 5848 5851 5854 5857 5861 5863 5866 5871 5873 5875 5877 5880 5883 5885 5887 5888 5889 5890 5891 5892 5892 5893 5893 5894 5895 5898 5900 5901 5904 5906 5908 5909 5910 5911 5913 5914 5915 5916 5917 5918 5918 5919 5921 5921 5923 5924
5810 5807 5805 5802 5800 5797 5796 5793 5792 5790 5788 5787 5785 5784 5783 5783 5782 5782 5783 5783 5784 5785 5787 5788 5790 5792 5794 5796 5799 5802 5805 5809 5812 5816 5819 5822 5825 5828 5832 5836 5839 5843 5846 5849 5852 5855 5858 5860 5865 5868 5871 5874 5877 5880 5882 5883 5884 5886 5888 5889 5890 5891 5892 5893 5893 5893 5895 5897 5899 5900 5903 5905 5907 5908 5909 5911 5912 5914 5915 5916 5917 5918 5918 5920 5921 5922 5923 5924
5808 5805 5802 5799 5797 5795 5793 5791 5789 5787 5785 5784 5782 5781 5780 5779 5779 5779 5780 5780 5781 5782 5783 5785 5787 5789 5791 5794 5796 5799 5803 5806 5809 5813 5817 5820 5823 5825 5829 5833 5837 5840 5844 5847 5850 5853 5855 5859 5863 5866 5871 5875 5877 5878 5879 5880 5883 5884 5886 5888 5889 5890 5891 5892 5893 5893 5894 5896 5897 5900 5902 5904 5906 5907 5909 5910 5912 5913 5914 5916 5917 5918 5919 5920 5921 5922 5923 5924
5805 5802 5799 5797 5794 5792 5790 5788 5786 5784 5783 5781 5779 5778 5777 5777 5776 5776 5777 5777 5778 5779 5780 5782 5784 5786 5788 5791 5793 5797 5800 5803 5806 5810 5813 5816 5820 5823 5826 5830 5834 5838 5841 5845 5848 5851 5854 5857 5861 5866 5871 5873 5874 5874 5876 5879 5882 5884 5886 5887 5888 5890 5890 5891 5892 5893 5893 5894 5895 5898 5900 5902 5904 5907 5908 5910 5911 5913 5914 5916 5917 5918 5919 5920 5921 5922 5923 5925
5802 5800 5797 5795 5792 5790 5788 5786 5784 5782 5780 5779 5777 5776 5775 5774 5774 5773 5774 5774 5775 5776 5777 5779 5781 5783 5786 5788 5791 5793 5796 5800 5803 5806 5810 5814 5817 5820 5823 5828 5832 5835 5839 5842 5845 5849 5852 5856 5861 5865 5867 5868 5869 5871 5874 5878 5881 5882 5884 5885 5887 5888 5889 5890 5892 5892 5892 5893 5895 5898 5900 5902 5904 5906 5908 5909 5911 5913 5914 5916 5917 5918 5919 5920 5921 5922 5924 5925
5800 5797 5795 5793 5790 5788 5786 5784 5782 5780 5778 5776 5775 5773 5772 5772 5771 5771 5771 5772 5773 5774 5775 5777 5779 5781 5783 5786 5788 5791 5794 5797 5801 5804 5807 5811 5814 5817 5821 5825 5829 5833 5837 5839 5843 5846 5850 5856 5860 5861 5862 5864 5867 5870 5873 5877 5879 5881 5883 5884 5885 5887 5888 5890 5891 5892 5892 5893 5895 5896 5898 5901 5903 5905 5907 5908 5910 5912 5913 5915 5916 5917 5919 5920 5921 5922 5924 5926
5798 5796 5793 5791 5788 5786 5784 5782 5780 5778 5776 5774 5772 5771 5770 5769 5769 5769 5769 5769 5770 5772 5773 5775 5777 5779 5781 5783 5785 5788 5791 5794 5798 5802 5805 5808 5812 5815 5819 5823 5827 5830 5834 5838 5842 5846 5850 5855 5856 5856 5859 5862 5865 5868 5872 5875 5877 5879 5881 5883 5884 5886 5888 5889 5890 5891 5892 5894 5894 5895 5897 5900 5902 5904 5905 5907 5908 5910 5912 5914 5915 5916 5918 5919 5920 5922 5924 5925
5796 5794 5791 5789 5786 5784 5782 5780 5778 5776 5774 5772 5770 5768 5767 5767 5766 5766 5767 5768 5769 5770 5771 5773 5775 5777 5779 5781 5783 5786 5789 5792 5796 5799 5803 5806 5809 5814 5817 5821 5824 5828 5832 5836 5841 5845 5849 5851 5852 5854 5857 5861 5863 5867 5870 5873 5876 5878 5879 5881 5883 5885 5886 5887 5889 5891 5892 5893 5894 5895 5897 5899 5901 5903 5905 5906 5908 5909 5911 5913 5915 5916 5917 5918 5920 5921 5923 5924
5795 5792 5790 5787 5785 5783 5781 5779 5777 5774 5772 5770 5768 5767 5766 5765 5765 5765 5766 5766 5767 5769 5770 5772 5773 5775 5777 5779 5782 5784 5787 5790 5793 5797 5800 5804 5808 5811 5815 5818 5822 5826 5830 5834 5838 5842 5846 5847 5849 5852 5856 5859 5862 5865 5868 5871 5874 5876 5877 5879 5882 5884 5885 5887 5888 5890 5891 5892 5894 5895 5896 5898 5900 5901 5903 5905 5907 5909 5910 5912 5914 5915 5916 5919 5920 5922 5923 5923
5793 5791 5788 5786 5784 5782 5780 5778 5776 5773 5771 5769 5767 5766 5765 5765 5764 5764 5765 5765 5766 5767 5769 5770 5772 5774 5776 5778 5781 5783 5786 5788 5791 5794 5798 5802 5805 5809 5813 5817 5820 5824 5828 5832 5836 5839 5842 5845 5847 5850 5853 5857 5861 5864 5867 5869 5872 5874 5876 5878 5880 5882 5884 5885 5887 5888 5889 5891 5893 5894 5895 5897 5898 5899 5902 5904 5906 5908 5909 5911 5913 5914 5916 5918 5920 5922 5923 5924
5792 5789 5787 5785 5783 5781 5779 5777 5775 5773 5770 5768 5767 5765 5765 5764 5764 5764 5765 5765 5766 5767 5768 5770 5772 5774 5775 5777 5779 5782 5785 5787 5790 5793 5796 5800 5804 5807 5811 5815 5819 5823 5827 5830 5833 5837 5840 5843 5845 5848 5851 5855 5859 5863 5866 5868 5871 5873 5874 5876 5878 5880 5881 5883 5885 5886 5888 5890 5892 5893 5894 5895 5895 5897 5900 5902 5904 5906 5908 5910 5912 5914 5916 5917 5919 5921 5922 5923
5790 5788 5786 5784 5782 5780 5778 5777 5775 5772 5770 5769 5767 5766 5765 5764 5764 5764 5765 5765 5766 5767 5768 5770 5771 5773 5775 5777 5779 5781 5784 5787 5790 5792 5794 5798 5801 5805 5809 5813 5817 5821 5825 5829 5831 5835 5838 5841 5843 5846 5849 5854 5858 5862 5864 5867 5870 5871 5873 5874 5876 5877 5879 5882 5884 5886 5887 5889 5890 5891 5892 5893 5894 5896 5898 5900 5902 5904 5907 5910 5911 5914 5916 5916 5918 5920 5922 5923
5789 5787 5785 5783 5781 5779 5778 5776 5775 5773 5771 5769 5768 5767 5766 5765 5765 5765 5766 5766 5767 5768 5768 5770 5771 5772 5774 5776 5778 5780 5783 5786 5788 5791 5794 5796 5799 5803 5807 5811 5815 5818 5822 5826 5829 5833 5836 5838 5839 5842 5847 5852 5857 5859 5862 5865 5867 5869 5871 5872 5874 5876 5878 5881 5883 5884 5887 5888 5889 5889 5891 5892 5894 5895 5897 5900 5902 5904 5907 5909 5911 5913 5915 5915 5916 5919 5921 5922
5788 5786 5784 5782 5780 5779 5777 5776 5775 5773 5772 5770 5769 5768 5767 5766 5766 5767 5767 5768 5768 5769 5769 5770 5771 5772 5774 5776 5778 5780 5782 5784 5787 5790 5793 5796 5798 5801 5804 5808 5812 5815 5819 5823 5826 5830 5832 5834 5836 5840 5845 5851 5854 5856 5859 5861 5864 5866 5868 5870 5871 5874 5876 5879 5880 5883 5885 5887 5887 5888 5890 5892 5894 5895 5897 5900 5902 5904 5905 5907 5909 5912 5913 5915 5915 5917 5920 5922
5787 5785 5783 5781 5780 5778 5777 5776 5775 5774 5772 5771 5770 5769 5768 5768 5768 5768 5769 5769 5769 5770 5770 5771 5771 5772 5774 5776 5777 5779 5781 5783 5786 5789 5792 5794 5797 5800 5803 5806 5809 5812 5816 5819 5823 5826 5829 5831 5834 5838 5844 5848 5851 5854 5856 5858 5861 5864 5866 5868 5870 5872 5874 5877 5879 5882 5884 5885 5887 5888 5889 5891 5894 5895 5896 5898 5900 5902 5903 5906 5909 5911 5913 5914 5915 5916 5919 5921
5786 5784 5782 5781 5779 5778 5777 5776 5775 5774 5773 5772 5771 5770 5770 5769 5769 5770 5771 5771 5771 5771 5771 5772 5772 5773 5774 5775 5777 5778 5781 5783 5785 5788 5791 5793 5796 5798 5801 5804 5807 5810 5814 5816 5820 5824 5827 5830 5833 5838 5842 5845 5848 5851 5853 5855 5858 5861 5864 5866 5867 5869 5872 5874 5877 5881 5883 5884 5886 5887 5888 5890 5892 5893 5895 5897 5898 5900 5902 5904 5907 5909 5911 5913 5914 5916 5918 5920
5785 5783 5782 5780 5779 5777 5776 5776 5775 5774 5774 5773 5772 5771 5771 5771 5771 5772 5772 5772 5772 5772 5772 5773 5773 5774 5775 5776 5777 5779 5780 5782 5785 5787 5790 5792 5795 5797 5800 5803 5806 5809 5811 5815 5819 5823 5825 5828 5832 5836 5839 5842 5845 5848 5850 5853 5856 5858 5862 5865 5866 5867 5870 5873 5876 5880 5882 5884 5886 5887 5888 5890 5891 5893 5895 5896 5897 5898 5901 5903 5904 5906 5908 5910 5913 5914 5916 5919
5784 5782 5781 5779 5778 5777 5776 5776 5775 5775 5774 5774 5773 5773 5772 5773 5773 5773 5773 5773 5773 5773 5773 5773 5774 5775 5775 5777 5778 5779 5781 5782 5784 5786 5789 5791 5793 5796 5799 5802 5805 5807 5810 5813 5817 5820 5823 5826 5831 5834 5837 5840 5843 5846 5849 5853 5855 5858 5862 5865 5866 5867 5870 5873 5876 5879 5881 5883 5885 5886 5888 5890 5892 5894 5895 5895 5896 5898 5900 5901 5902 5904 5905 5907 5909 5911 5914 5917
5783 5781 5780 5779 5778 5777 5776 5776 5776 5775 5775 5774 5774 5773 5773 5774 5774 5774 5774 5774 5774 5774 5774 5774 5774 5775 5776 5777 5778 5780 5781 5782 5783 5785 5788 5790 5792 5794 5797 5800 5803 5806 5808 5811 5815 5818 5821 5825 5829 5832 5835 5838 5842 5845 5848 5851 5854 5857 5861 5863 5865 5867 5870 5872 5875 5877 5879 5880 5882 5884 5887 5890 5892 5893 5894 5895 5896 5897 5898 5899 5900 5902 5904 5905 5907 5909 5911 5914
5782 5781 5779 5778 5777 5777 5776 5776 5776 5775 5775 5775 5774 5774 5774 5774 5774 5774 5774 5774 5774 5774 5774 5774 5775 5776 5777 5778 5779 5780 5781 5782 5783 5785 5787 5789 5791 5793 5796 5799 5801 5804 5807 5810 5814 5817 5820 5824 5828 5830 5833 5836 5840 5843 5846 5849 5852 5855 5857 5860 5864 5866 5868 5871 5873 5875 5876 5878 5880 5883 5886 5889 5890 5891 5893 5894 5895 5896 5898 5898 5899 5901 5903 5906 5908 5909 5910 5912
5781 5780 5779 5777 5777 5776 5776 5776 5776 5775 5775 5775 5775 5774 5774 5774 5774 5774 5774 5774 5775 5775 5774 5775 5775 5776 5777 5778 5779 5781 5782 5783 5784 5785 5787 5789 5791 5792 5794 5797 5800 5802 5805 5809 5813 5815 5819 5823 5826 5828 5831 5834 5837 5840 5843 5846 5850 5853 5855 5859 5863 5865 5866 5869 5872 5873 5874 5876 5878 5882 5885 5887 5888 5890 5892 5893 5894 5896 5897 5898 5898 5900 5903 5905 5907 5908 5909 5911
5780 5779 5778 5777 5776 5776 5776 5775 5775 5775 5775 5775 5774 5774 5774 5774 5774 5774 5774 5775 5775 5775 5775 5775 5775 5777 5778 5779 5780 5781 5782 5783 5784 5786 5787 5788 5790 5792 5794 5796 5798 5800 5804 5808 5811 5814 5818 5821 5823 5826 5829 5832 5834 5837 5839 5842 5846 5850 5854 5859 5862 5863 5865 5868 5870 5871 5873 5875 5877 5880 5883 5885 5887 5889 5891 5892 5893 5894 5896 5897 5898 5900 5902 5904 5906 5907 5908 5909
5779 5778 5777 5776 5775 5775 5775 5775 5775 5775 5775 5774 5774 5774 5773 5773 5773 5774 5774 5775 5775 5775 5775 5775 5776 5777 5779 5780 5781 5782 5783 5784 5785 5786 5787 5788 5790 5792 5793 5795 5797 5799 5803 5806 5809 5812 5816 5819 5821 5824 5827 5830 5831 5834 5836 5840 5843 5847 5851 5855 5858 5860 5863 5866 5868 5870 5872 5874 5876 5879 5882 5884 5886 5889 5891 5892 5893 5893 5894 5896 5897 5899 5901 5902 5904 5905 5906 5908
5778 5777 5776 5775 5775 5774 5774 5774 5774 5774 5774 5774 5774 5773 5773 5773 5773 5773 5774 5774 5775 5775 5775 5776 5777 5778 5779 5780 5781 5782 5783 5784 5785 5786 5787 5789 5790 5792 5793 5795 5796 5799 5802 5805 5808 5811 5814 5817 5819 5822 5825 5827 5829 5831 5835 5838 5842 5845 5848 5851 5853 5857 5861 5863 5865 5868 5870 5872 5875 5878 5881 5883 5885 5887 5889 5891 5892 5893 5893 5894 5896 5897 5899 5900 5902 5903 5904 5906
5777 5776 5775 5775 5774 5774 5774 5774 5773 5773 5773 5773 5773 5773 5773 5772 5772 5773 5773 5774 5775 5775 5776 5776 5777 5778 5779 5780 5781 5782 5783 5784 5785 5786 5787 5788 5790 5791 5793 5794 5796 5799 5801 5804 5806 5809 5812 5814 5817 5820 5823 5825 5827 5830 5834 5837 5840 5844 5848 5850 5852 5855 5859 5862 5863 5865 5868 5870 5873 5876 5880 5882 5884 5885 5887 5889 5891 5892 5892 5892 5894 5895 5896 5898 5899 5901 5901 5902
5776 5775 5774 5774 5773 5773 5773 5773 5773 5773 5773 5773 5773 5772 5772 5772 5771 5771 5772 5773 5774 5775 5776 5776 5777 5778 5779 5780 5781 5782 5783 5784 5785 5786 5787 5788 5789 5791 5792 5794 5796 5798 5801 5803 5805 5808 5810 5813 5815 5818 5821 5823 5825 5828 5832 5835 5838 5842 5845 5848 5851 5854 5857 5860 5861 5864 5867 5869 5872 5875 5878 5881 5882 5884 5885 5887 5889 5890 5890 5891 5892 5894 5894 5895 5897 5898 5898 5899
5775 5774 5773 5773 5772 5772 5772 5772 5772 5772 5772 5773 5772 5772 5772 5771 5770 5771 5771 5772 5773 5774 5775 5776 5777 5778 5778 5779 5780 5781 5782 5784 5785 5786 5786 5788 5789 5790 5791 5793 5795 5797 5800 5802 5804 5806 5809 5811 5814 5817 5819 5822 5824 5827 5830 5833 5836 5838 5841 5845 5848 5851 5855 5858 5860 5862 5865 5867 5870 5873 5876 5879 5881 5883 5884 5886 5887 5888 5889 5890 5891 5892 5893 5894 5894 5895 5896 5897
5774 5773 5772 5772 5771 5771 5771 5771 5771 5772 5772 5772 5772 5772 5771 5771 5770 5770 5770 5771 5772 5773 5774 5775 5776 5777 5778 5779 5780 5781 5782 5783 5784 5785 5786 5787 5788 5790 5791 5792 5794 5796 5799 5801 5803 5805 5808 5810 5812 5815 5817 5820 5822 5825 5827 5830 5833 5835 5839 5842 5845 5848 5852 5855 5857 5859 5862 5864 5867 5870 5873 5877 5880 5881 5883 5884 5886 5887 5888 5889 5890 5891 5892 5893 5893 5893 5894 5896
5773 5772 5771 5771 5770 5770 5770 5771 5771 5771 5771 5771 5771 5771 5771 5771 5770 5770 5770 5770 5771 5772 5773 5774 5775 5776 5777 5778 5779 5780 5781 5782 5783 5784 5785 5787 5788 5789 5790 5792 5793 5795 5797 5800 5802 5804 5807 5809 5811 5813 5815 5818 5820 5822 5824 5827 5830 5833 5836 5840 5843 5846 5848 5852 5854 5856 5859 5862 5864 5867 5870 5874 5877 5879 5881 5882 5884 5885 5886 5887 5888 5889 5890 5892 5892 5893 5894 5896
5772 5771 5770 5770 5769 5769 5769 5770 5770 5770 5770 5770 5770 5771 5771 5770 5770 5769 5769 5769 5770 5771 5772 5773 5774 5775 5776 5777 5778 5779 5780 5781 5782 5783 5784 5785 5787 5788 5789 5791 5792 5794 5796 5798 5801 5803 5805 5808 5809 5812 5814 5817 5819 5822 5824 5826 5829 5832 5835 5838 5841 5844 5846 5849 5851 5853 5856 5859 5862 5865 5868 5872 5875 5877 5879 5880 5882 5883 5884 5885 5886 5887 5889 5890 5891 5892 5893 5894
5771 5770 5769 5768 5768 5768 5768 5769 5769 5769 5769 5770 5770 5770 5771 5770 5770 5769 5769 5769 5769 5770 5771 5772 5772 5773 5774 5775 5777 5778 5779 5780 5781 5782 5783 5784 5785 5787 5788 5790 5791 5793 5795 5797 5799 5802 5804 5806 5808 5810 5813 5815 5818 5821 5824 5826 5828 5831 5834 5836 5839 5842 5844 5847 5849 5851 5854 5857 5860 5862 5866 5869 5872 5874 5877 5878 5880 5881 5882 5883 5884 5885 5886 5888 5890 5890 5891 5892
5769 5768 5768 5767 5767 5767 5767 5768 5768 5768 5769 5769 5769 5770 5770 5770 5770 5769 5769 5769 5769 5769 5770 5771 5771 5772 5772 5773 5775 5776 5777 5778 5779 5780 5781 5782 5784 5785 5787 5788 5790 5792 5794 5796 5798 5800 5803 5805 5807 5809 5812 5814 5817 5820 5822 5825 5827 5830 5832 5835 5837 5840 5842 5845 5847 5849 5851 5854 5858 5861 5863 5866 5869 5871 5874 5876 5878 5879 5880 5881 5882 5883 5884 5886 5888 5889 5890 5891
5768 5767 5766 5766 5766 5766 5766 5766 5767 5768 5768 5768 5769 5769 5769 5769 5769 5769 5769 5769 5769 5769 5769 5770 5770 5771 5771 5772 5773 5774 5775 5776 5777 5778 5779 5780 5782 5784 5785 5787 5788 5790 5792 5794 5796 5799 5801 5803 5805 5808 5810 5813 5815 5818 5820 5823 5826 5828 5831 5833 5835 5838 5840 5842 5844 5846 5849 5851 5855 5858 5860 5863 5866 5868 5871 5873 5875 5877 5878 5879 5881 5881 5883 5884 5885 5887 5888 5890
5766 5765 5764 5764 5764 5764 5765 5765 5766 5767 5767 5768 5768 5768 5768 5768 5769 5769 5769 5769 5769 5769 5769 5769 5770 5770 5771 5772 5772 5773 5774 5774 5775 5776 5777 5779 5780 5782 5783 5785 5787 5789 5791 5793 5795 5797 5800 5802 5803 5806 5809 5811 5814 5816 5818 5821 5824 5826 5829 5831 5833 5835 5838 5840 5842 5844 5847 5849 5852 5855 5858 5861 5864 5866 5868 5870 5873 5875 5876 5878 5879 5880 5881 5882 5884 5885 5887 5888
5764 5763 5763 5762 5762 5763 5763 5764 5765 5766 5767 5767 5767 5767 5767 5767 5768 5768 5769 5769 5769 5769 5769 5769 5769 5770 5771 5771 5771 5772 5773 5773 5774 5774 5775 5777 5778 5780 5781 5783 5785 5787 5789 5791 5793 5796 5798 5799 5801 5804 5807 5809 5812 5814 5817 5819 5822 5824 5827 5829 5831 5833 5835 5837 5839 5842 5844 5847 5849 5852 5855 5858 5861 5863 5865 5868 5870 5872 5874 5875 5877 5878 5879 5880 5882 5883 5884 5886
5762 5762 5761 5761 5761 5761 5762 5762 5764 5765 5765 5766 5766 5766 5766 5766 5767 5768 5768 5768 5769 5769 5769 5769 5769 5769 5770 5770 5770 5771 5772 5772 5773 5773 5774 5775 5776 5777 5779 5781 5783 5785 5787 5790 5792 5794 5796 5797 5799 5803 5805 5807 5810 5813 5815 5817 5820 5822 5824 5826 5829 5831 5833 5835 5837 5839 5841 5844 5847 5849 5852 5855 5858 5860 5862 5865 5867 5869 5871 5872 5874 5875 5877 5878 5880 5881 5883 5883